SWA3320 KRNO-KSAN

Flight info

Callsign SWA3320
Flight time 1h 14m
Altitude 37000
Route ZEFFR9 DARBI EHF HUULK COMIX2
Aircraft B738/M-SDE2E3FGHIRWXY/LB1

Departure

Time 2026-04-21 13:12
Airport Reno Tahoe International Airport (KRNO)

Arrival

Time 2026-04-21 14:27
Airport San Diego International Airport (KSAN)
Time Latitude Longitude Altitude Speed Heading
2026-04-21 12:58 39.50481 -119.77216 4481 ft 0 kts 286°
2026-04-21 13:05 39.50477 -119.77199 4478 ft 6 kts 287°
2026-04-21 13:06 39.50467 -119.77164 4484 ft 2 kts 311°
2026-04-21 13:06 39.50457 -119.77154 4486 ft 2 kts 345°
2026-04-21 13:06 39.50446 -119.77152 4493 ft 2 kts 356°
2026-04-21 13:06 39.50435 -119.77151 4494 ft 2 kts 359°
2026-04-21 13:08 39.50436 -119.77151 4493 ft 1 kts 359°
2026-04-21 13:09 39.50454 -119.77152 4493 ft 6 kts 359°
2026-04-21 13:09 39.50519 -119.77153 4495 ft 13 kts 359°
2026-04-21 13:09 39.50597 -119.77099 4494 ft 14 kts 58°
2026-04-21 13:09 39.50683 -119.77067 4496 ft 14 kts 358°
2026-04-21 13:10 39.50790 -119.77067 4496 ft 17 kts
2026-04-21 13:10 39.50919 -119.77066 4494 ft 19 kts
2026-04-21 13:10 39.51051 -119.77066 4494 ft 19 kts 359°
2026-04-21 13:10 39.51178 -119.77066 4495 ft 18 kts
2026-04-21 13:11 39.51302 -119.77066 4495 ft 17 kts
2026-04-21 13:11 39.51372 -119.76979 4495 ft 17 kts 98°
2026-04-21 13:11 39.51241 -119.76925 4498 ft 38 kts 179°
2026-04-21 13:11 39.50751 -119.76926 4497 ft 101 kts 180°
2026-04-21 13:12 39.49859 -119.76927 4492 ft 153 kts 180°
2026-04-21 13:12 39.48658 -119.76938 4692 ft 182 kts 180°
2026-04-21 13:12 39.47395 -119.76985 5545 ft 181 kts 184°
2026-04-21 13:12 39.46144 -119.77020 6268 ft 180 kts 179°
2026-04-21 13:13 39.44912 -119.77008 7041 ft 173 kts 180°
2026-04-21 13:13 39.43731 -119.76996 7797 ft 171 kts 180°
2026-04-21 13:13 39.42503 -119.76989 8255 ft 182 kts 180°
2026-04-21 13:13 39.41176 -119.77000 8510 ft 201 kts 180°
2026-04-21 13:14 39.39714 -119.76995 8773 ft 219 kts 180°
2026-04-21 13:14 39.38098 -119.76983 8990 ft 243 kts 180°
2026-04-21 13:14 39.36362 -119.76972 9569 ft 253 kts 180°
2026-04-21 13:14 39.34595 -119.76970 10370 ft 256 kts 180°
2026-04-21 13:15 39.32740 -119.76973 10652 ft 279 kts 180°
2026-04-21 13:15 39.30716 -119.76949 10852 ft 302 kts 180°
2026-04-21 13:15 39.28531 -119.76872 11054 ft 324 kts 179°
2026-04-21 13:15 39.26254 -119.76779 11511 ft 335 kts 179°
2026-04-21 13:16 39.23905 -119.76681 12213 ft 338 kts 180°
2026-04-21 13:16 39.21552 -119.76584 12996 ft 339 kts 180°
2026-04-21 13:16 39.19178 -119.76490 13755 ft 342 kts 181°
2026-04-21 13:16 39.16793 -119.76398 14407 ft 344 kts 181°
2026-04-21 13:17 39.14385 -119.76306 15041 ft 347 kts 181°
2026-04-21 13:17 39.11962 -119.76214 15673 ft 350 kts 181°
2026-04-21 13:17 39.09548 -119.76123 16266 ft 353 kts 181°
2026-04-21 13:17 39.07072 -119.76030 16857 ft 356 kts 181°
2026-04-21 13:18 39.04588 -119.75936 17475 ft 358 kts 181°
2026-04-21 13:18 39.02086 -119.75842 18059 ft 361 kts 181°
2026-04-21 13:18 38.99557 -119.75747 18588 ft 364 kts 181°
2026-04-21 13:18 38.97023 -119.75652 19168 ft 364 kts 181°
2026-04-21 13:19 38.94514 -119.75559 19752 ft 364 kts 181°
2026-04-21 13:19 38.91965 -119.75466 20304 ft 365 kts 181°
2026-04-21 13:19 38.89416 -119.75372 20805 ft 367 kts 181°
2026-04-21 13:19 38.86857 -119.75279 21295 ft 369 kts 181°
2026-04-21 13:20 38.84315 -119.75185 21775 ft 370 kts 181°
2026-04-21 13:20 38.81732 -119.75091 22221 ft 372 kts 181°
2026-04-21 13:20 38.79135 -119.74996 22647 ft 374 kts 181°
2026-04-21 13:20 38.76521 -119.74900 23107 ft 375 kts 181°
2026-04-21 13:21 38.73908 -119.74804 23542 ft 376 kts 181°
2026-04-21 13:21 38.71277 -119.74707 23844 ft 379 kts 181°
2026-04-21 13:21 38.68634 -119.74611 24173 ft 382 kts 181°
2026-04-21 13:21 38.65963 -119.74513 24480 ft 384 kts 181°
2026-04-21 13:22 38.63279 -119.74415 24746 ft 387 kts 181°
2026-04-21 13:22 38.60579 -119.74317 25062 ft 389 kts 181°
2026-04-21 13:22 38.57863 -119.74218 25338 ft 391 kts 181°
2026-04-21 13:22 38.55136 -119.74118 25658 ft 393 kts 181°
2026-04-21 13:23 38.52395 -119.74018 25962 ft 395 kts 181°
2026-04-21 13:23 38.49675 -119.73919 26260 ft 397 kts 180°
2026-04-21 13:23 38.46912 -119.73818 26533 ft 399 kts 180°
2026-04-21 13:23 38.44128 -119.73717 26801 ft 401 kts 181°
2026-04-21 13:24 38.41327 -119.73615 27119 ft 403 kts 180°
2026-04-21 13:24 38.38511 -119.73513 27320 ft 405 kts 180°
2026-04-21 13:24 38.35687 -119.73410 27597 ft 407 kts 181°
2026-04-21 13:24 38.32850 -119.73307 27941 ft 407 kts 181°
2026-04-21 13:25 38.30020 -119.73192 28390 ft 406 kts 179°
2026-04-21 13:25 38.27215 -119.72749 28843 ft 406 kts 174°
2026-04-21 13:25 38.24434 -119.72106 29225 ft 406 kts 173°
2026-04-21 13:25 38.21655 -119.71415 29564 ft 407 kts 173°
2026-04-21 13:26 38.18878 -119.70718 29929 ft 407 kts 173°
2026-04-21 13:26 38.16108 -119.70031 30287 ft 405 kts 173°
2026-04-21 13:26 38.13381 -119.69368 30651 ft 403 kts 173°
2026-04-21 13:26 38.10619 -119.68707 30965 ft 403 kts 173°
2026-04-21 13:27 38.07861 -119.68057 31242 ft 404 kts 173°
2026-04-21 13:27 38.05094 -119.67409 31560 ft 403 kts 173°
2026-04-21 13:27 38.02335 -119.66766 31882 ft 402 kts 173°
2026-04-21 13:27 37.99581 -119.66125 32211 ft 402 kts 173°
2026-04-21 13:28 37.96829 -119.65486 32507 ft 401 kts 174°
2026-04-21 13:28 37.94080 -119.64848 32786 ft 401 kts 174°
2026-04-21 13:28 37.91330 -119.64211 33107 ft 401 kts 174°
2026-04-21 13:28 37.88581 -119.63574 33230 ft 402 kts 174°
2026-04-21 13:29 37.85824 -119.62936 33446 ft 403 kts 174°
2026-04-21 13:29 37.83102 -119.62306 33705 ft 403 kts 174°
2026-04-21 13:29 37.80310 -119.61661 33961 ft 402 kts 174°
2026-04-21 13:29 37.77559 -119.61025 34210 ft 402 kts 174°
2026-04-21 13:30 37.74809 -119.60389 34438 ft 401 kts 174°
2026-04-21 13:30 37.72096 -119.59763 34640 ft 402 kts 174°
2026-04-21 13:30 37.69346 -119.59129 34845 ft 401 kts 174°
2026-04-21 13:30 37.66603 -119.58497 35070 ft 401 kts 174°
2026-04-21 13:31 37.63858 -119.57865 35291 ft 401 kts 174°
2026-04-21 13:31 37.61118 -119.57235 35503 ft 400 kts 174°
2026-04-21 13:31 37.58375 -119.56605 35697 ft 401 kts 174°
2026-04-21 13:31 37.55628 -119.55974 35868 ft 402 kts 174°
2026-04-21 13:32 37.52876 -119.55343 36080 ft 402 kts 174°
2026-04-21 13:32 37.50125 -119.54712 36290 ft 401 kts 174°
2026-04-21 13:32 37.47377 -119.54082 36478 ft 402 kts 174°
2026-04-21 13:32 37.44623 -119.53451 36659 ft 402 kts 174°
2026-04-21 13:33 37.41870 -119.52821 36872 ft 402 kts 174°
2026-04-21 13:33 37.39121 -119.52193 36920 ft 404 kts 174°
2026-04-21 13:33 37.33570 -119.50926 36934 ft 403 kts 174°
2026-04-21 13:34 37.28987 -119.49879 36931 ft 402 kts 174°
2026-04-21 13:34 37.23501 -119.48628 36929 ft 399 kts 174°
2026-04-21 13:35 37.18040 -119.47386 36928 ft 398 kts 175°
2026-04-21 13:35 37.12717 -119.46177 36932 ft 397 kts 175°
2026-04-21 13:36 37.07320 -119.44954 36941 ft 397 kts 175°
2026-04-21 13:36 37.01871 -119.43721 36935 ft 398 kts 175°
2026-04-21 13:37 36.96426 -119.42489 36936 ft 398 kts 175°
2026-04-21 13:37 36.90961 -119.41256 36959 ft 400 kts 175°
2026-04-21 13:38 36.85490 -119.40023 36956 ft 402 kts 175°
2026-04-21 13:38 36.79948 -119.38776 36948 ft 405 kts 175°
2026-04-21 13:39 36.74387 -119.37526 36953 ft 407 kts 175°
2026-04-21 13:39 36.68801 -119.36271 36960 ft 408 kts 175°
2026-04-21 13:40 36.63251 -119.35027 36959 ft 408 kts 175°
2026-04-21 13:40 36.57653 -119.33773 36970 ft 409 kts 175°
2026-04-21 13:41 36.52042 -119.32519 36963 ft 409 kts 175°
2026-04-21 13:41 36.46436 -119.31268 36969 ft 409 kts 175°
2026-04-21 13:42 36.40841 -119.30021 36967 ft 408 kts 175°
2026-04-21 13:42 36.35278 -119.28783 36975 ft 408 kts 175°
2026-04-21 13:43 36.29691 -119.27542 36978 ft 408 kts 175°
2026-04-21 13:43 36.24103 -119.26302 36977 ft 408 kts 175°
2026-04-21 13:44 36.18510 -119.25063 36983 ft 408 kts 175°
2026-04-21 13:44 36.12909 -119.23824 36982 ft 408 kts 175°
2026-04-21 13:45 36.07306 -119.22586 36980 ft 409 kts 175°
2026-04-21 13:45 36.01737 -119.21358 36980 ft 410 kts 175°
2026-04-21 13:46 35.96115 -119.20120 36978 ft 410 kts 175°
2026-04-21 13:46 35.90484 -119.18881 36979 ft 411 kts 176°
2026-04-21 13:47 35.84843 -119.17642 36972 ft 412 kts 176°
2026-04-21 13:47 35.79190 -119.16402 36971 ft 413 kts 176°
2026-04-21 13:48 35.73521 -119.15161 36973 ft 414 kts 176°
2026-04-21 13:48 35.67871 -119.13925 36971 ft 415 kts 176°
2026-04-21 13:49 35.62179 -119.12682 36964 ft 416 kts 176°
2026-04-21 13:49 35.56477 -119.11438 36950 ft 416 kts 176°
2026-04-21 13:50 35.50763 -119.10192 36950 ft 418 kts 175°
2026-04-21 13:50 35.45155 -119.07956 36959 ft 430 kts 163°
2026-04-21 13:51 35.39703 -119.04866 36952 ft 432 kts 162°
2026-04-21 13:51 35.34273 -119.01788 36950 ft 432 kts 162°
2026-04-21 13:52 35.28801 -118.98724 36949 ft 432 kts 163°
2026-04-21 13:52 35.23322 -118.95677 36949 ft 433 kts 163°
2026-04-21 13:53 35.17833 -118.92633 36947 ft 433 kts 163°
2026-04-21 13:53 35.12341 -118.89591 36946 ft 434 kts 163°
2026-04-21 13:54 35.06834 -118.86545 36957 ft 434 kts 163°
2026-04-21 13:54 35.01354 -118.83517 36969 ft 435 kts 163°
2026-04-21 13:55 34.95836 -118.80474 36972 ft 435 kts 163°
2026-04-21 13:55 34.90301 -118.77427 36969 ft 437 kts 163°
2026-04-21 13:56 34.84755 -118.74377 36970 ft 438 kts 163°
2026-04-21 13:56 34.79189 -118.71319 36989 ft 438 kts 163°
2026-04-21 13:57 34.73627 -118.68269 36990 ft 439 kts 163°
2026-04-21 13:57 34.68079 -118.65231 37011 ft 441 kts 163°
2026-04-21 13:58 34.62474 -118.62165 36997 ft 442 kts 163°
2026-04-21 13:58 34.56904 -118.58912 37039 ft 449 kts 158°
2026-04-21 13:59 34.51481 -118.55039 37046 ft 454 kts 156°
2026-04-21 13:59 34.46105 -118.51106 37058 ft 456 kts 156°
2026-04-21 14:00 34.40637 -118.47166 37060 ft 459 kts 157°
2026-04-21 14:00 34.35220 -118.43309 37067 ft 460 kts 157°
2026-04-21 14:01 34.29592 -118.39320 36655 ft 470 kts 157°
2026-04-21 14:01 34.26773 -118.37325 36142 ft 468 kts 156°
2026-04-21 14:01 34.23966 -118.35335 35514 ft 467 kts 156°
2026-04-21 14:02 34.21158 -118.33344 34867 ft 467 kts 156°
2026-04-21 14:02 34.18345 -118.31353 34224 ft 467 kts 156°
2026-04-21 14:02 34.15543 -118.29373 33480 ft 467 kts 156°
2026-04-21 14:03 34.09989 -118.25449 32208 ft 461 kts 156°
2026-04-21 14:03 34.07231 -118.23502 31696 ft 457 kts 155°
2026-04-21 14:03 34.04500 -118.21576 31206 ft 452 kts 156°
2026-04-21 14:03 34.01796 -118.19672 30718 ft 448 kts 156°
2026-04-21 14:04 33.99106 -118.17779 30248 ft 444 kts 155°
2026-04-21 14:04 33.96449 -118.15912 29697 ft 440 kts 155°
2026-04-21 14:04 33.93821 -118.14066 29186 ft 435 kts 155°
2026-04-21 14:04 33.91214 -118.12236 28693 ft 430 kts 155°
2026-04-21 14:05 33.88669 -118.10451 28207 ft 426 kts 155°
2026-04-21 14:05 33.86118 -118.08662 27719 ft 422 kts 155°
2026-04-21 14:05 33.83586 -118.06901 27207 ft 418 kts 156°
2026-04-21 14:05 33.81055 -118.05203 26728 ft 414 kts 157°
2026-04-21 14:06 33.78536 -118.03544 26253 ft 410 kts 157°
2026-04-21 14:06 33.76039 -118.01907 25787 ft 407 kts 157°
2026-04-21 14:06 33.73554 -118.00276 25317 ft 405 kts 157°
2026-04-21 14:06 33.71091 -117.98655 24866 ft 402 kts 156°
2026-04-21 14:07 33.68647 -117.97044 24428 ft 400 kts 156°
2026-04-21 14:07 33.66211 -117.95436 23965 ft 398 kts 156°
2026-04-21 14:07 33.63789 -117.93838 23454 ft 397 kts 156°
2026-04-21 14:07 33.61376 -117.92246 22938 ft 394 kts 156°
2026-04-21 14:08 33.59010 -117.90685 22451 ft 391 kts 156°
2026-04-21 14:08 33.56630 -117.89117 21982 ft 388 kts 156°
2026-04-21 14:08 33.54271 -117.87561 21521 ft 385 kts 156°
2026-04-21 14:08 33.51942 -117.85984 21091 ft 382 kts 155°
2026-04-21 14:09 33.49640 -117.84406 20636 ft 380 kts 155°
2026-04-21 14:09 33.47349 -117.82839 20178 ft 378 kts 155°
2026-04-21 14:09 33.45066 -117.81275 19732 ft 377 kts 154°
2026-04-21 14:09 33.42919 -117.79461 19281 ft 381 kts 145°
2026-04-21 14:10 33.40934 -117.77348 18837 ft 381 kts 143°
2026-04-21 14:10 33.38973 -117.75213 18379 ft 380 kts 143°
2026-04-21 14:10 33.37020 -117.73087 17859 ft 379 kts 143°
2026-04-21 14:10 33.35073 -117.70982 17391 ft 376 kts 143°
2026-04-21 14:11 33.33133 -117.68899 16932 ft 374 kts 143°
2026-04-21 14:11 33.31200 -117.66831 16479 ft 371 kts 143°
2026-04-21 14:11 33.29302 -117.64807 16047 ft 369 kts 143°
2026-04-21 14:11 33.27389 -117.62768 15614 ft 367 kts 143°
2026-04-21 14:12 33.25485 -117.60742 15177 ft 365 kts 143°
2026-04-21 14:12 33.23600 -117.58745 14825 ft 359 kts 143°
2026-04-21 14:12 33.21740 -117.56784 14499 ft 353 kts 143°
2026-04-21 14:12 33.19913 -117.54864 14178 ft 347 kts 143°
2026-04-21 14:13 33.18114 -117.52972 13858 ft 342 kts 143°
2026-04-21 14:13 33.16338 -117.51105 13514 ft 338 kts 143°
2026-04-21 14:13 33.14579 -117.49258 13197 ft 335 kts 143°
2026-04-21 14:13 33.12809 -117.47523 12876 ft 330 kts 148°
2026-04-21 14:14 33.10941 -117.45960 12551 ft 327 kts 150°
2026-04-21 14:14 33.09053 -117.44431 12215 ft 326 kts 150°
2026-04-21 14:14 33.07185 -117.42902 11900 ft 325 kts 149°
2026-04-21 14:14 33.05336 -117.41372 11608 ft 323 kts 149°
2026-04-21 14:15 33.03510 -117.39848 11307 ft 318 kts 149°
2026-04-21 14:15 33.01715 -117.38341 11021 ft 313 kts 149°
2026-04-21 14:15 32.99945 -117.36854 10736 ft 309 kts 149°
2026-04-21 14:15 32.98201 -117.35390 10458 ft 305 kts 149°
2026-04-21 14:16 32.96494 -117.33958 10188 ft 301 kts 149°
2026-04-21 14:16 32.94788 -117.32529 9943 ft 296 kts 149°
2026-04-21 14:16 32.93225 -117.31218 9957 ft 283 kts 149°
2026-04-21 14:16 32.91669 -117.29914 9851 ft 273 kts 149°
2026-04-21 14:17 32.90067 -117.28584 9272 ft 282 kts 149°
2026-04-21 14:17 32.88446 -117.27239 8897 ft 283 kts 149°
2026-04-21 14:17 32.86844 -117.25908 8625 ft 280 kts 149°
2026-04-21 14:17 32.85247 -117.24581 8358 ft 278 kts 149°
2026-04-21 14:18 32.83687 -117.23286 8086 ft 276 kts 149°
2026-04-21 14:18 32.82132 -117.21971 7842 ft 274 kts 143°
2026-04-21 14:18 32.80970 -117.20160 7579 ft 280 kts 116°
2026-04-21 14:18 32.80386 -117.17953 7347 ft 279 kts 107°
2026-04-21 14:19 32.79914 -117.15719 7082 ft 278 kts 106°
2026-04-21 14:19 32.79443 -117.13496 6824 ft 277 kts 107°
2026-04-21 14:19 32.78962 -117.11285 6578 ft 275 kts 107°
2026-04-21 14:19 32.78476 -117.09088 6317 ft 274 kts 107°
2026-04-21 14:20 32.77990 -117.06907 6084 ft 272 kts 107°
2026-04-21 14:20 32.77493 -117.04782 6014 ft 262 kts 108°
2026-04-21 14:20 32.76998 -117.02750 5992 ft 250 kts 108°
2026-04-21 14:20 32.76520 -117.00796 5993 ft 244 kts 108°
2026-04-21 14:21 32.76054 -116.98892 6011 ft 243 kts 108°
2026-04-21 14:21 32.75379 -116.97067 5996 ft 241 kts 130°
2026-04-21 14:21 32.74138 -116.95796 5998 ft 234 kts 158°
2026-04-21 14:21 32.72633 -116.95347 5894 ft 216 kts 182°
2026-04-21 14:22 32.71187 -116.95673 5303 ft 208 kts 204°
2026-04-21 14:22 32.69982 -116.96571 4688 ft 204 kts 226°
2026-04-21 14:22 32.69390 -116.97430 4279 ft 203 kts 239°
2026-04-21 14:22 32.68868 -116.98972 3661 ft 202 kts 262°
2026-04-21 14:23 32.68972 -117.01050 3410 ft 182 kts 287°
2026-04-21 14:23 32.69231 -117.02008 3095 ft 183 kts 287°
2026-04-21 14:23 32.69579 -117.03413 2812 ft 172 kts 286°
2026-04-21 14:23 32.69902 -117.04743 2625 ft 160 kts 286°
2026-04-21 14:24 32.70203 -117.05980 2356 ft 153 kts 286°
2026-04-21 14:24 32.70497 -117.07187 2169 ft 153 kts 286°
2026-04-21 14:24 32.70796 -117.08414 1943 ft 157 kts 286°
2026-04-21 14:24 32.71098 -117.09656 1706 ft 156 kts 286°
2026-04-21 14:25 32.71397 -117.10885 1455 ft 154 kts 286°
2026-04-21 14:25 32.71695 -117.12114 1222 ft 155 kts 286°
2026-04-21 14:25 32.71995 -117.13346 987 ft 156 kts 286°
2026-04-21 14:25 32.72296 -117.14593 749 ft 157 kts 286°
2026-04-21 14:26 32.72603 -117.15834 474 ft 159 kts 286°
2026-04-21 14:26 32.72907 -117.17102 219 ft 160 kts 286°
2026-04-21 14:26 32.73211 -117.18364 28 ft 155 kts 286°
2026-04-21 14:26 32.73476 -117.19456 22 ft 111 kts 286°
2026-04-21 14:27 32.73475 -117.19833 26 ft 13 kts 175°
2026-04-21 14:27 32.73451 -117.19784 23 ft 7 kts 105°
2026-04-21 14:27 32.73438 -117.19727 23 ft 8 kts 107°
2026-04-21 14:27 32.73390 -117.19700 21 ft 9 kts 178°
2026-04-21 14:28 32.73323 -117.19724 21 ft 11 kts 200°
2026-04-21 14:28 32.73290 -117.19715 19 ft 0 kts 141°
2026-04-21 14:28 32.73289 -117.19715 19 ft 0 kts 141°
2026-04-21 14:28 32.73279 -117.19705 20 ft 4 kts 139°
2026-04-21 14:29 32.73275 -117.19700 20 ft 0 kts 139°